GW0409 Weather Reports


Display with metric or nautical units.
time (UTC)temp
F
wind
direction
speed
MPH
gust
MPH
rain 1hr
in
rain 24hr
in
rain mn
in
humidity
%
barometer
mb
20260902125517 53 27 3.0 4.0 0.00 0.00 0.00 84 1002.5
20260902124518 53 33 2.0 4.0 0.00 0.00 0.00 82 1002.4
20260902123539 53 26 2.0 4.0 0.00 0.00 0.00 82 1002.4
20260902122518 53 16 1.0 4.0 0.00 0.00 0.00 84 1002.4
20260902121518 53 29 2.0 5.0 0.00 0.00 0.00 84 1002.4
20260902120518 53 26 2.0 4.0 0.00 0.00 0.00 84 1002.4
20260902115518 53 28 3.0 5.0 0.00 0.00 0.00 85 1002.4
20260902114518 53 22 2.0 5.0 0.00 0.00 0.00 85 1002.4
20260902113541 53 22 3.0 4.0 0.00 0.00 0.00 83 1002.3
20260902112519 54 22 2.0 4.0 0.00 0.00 0.00 81 1002.3
20260902111519 55 22 0.0 2.0 0.00 0.00 0.00 75 1002.2
20260902110519 55 0.0 0.0 0.00 0.00 0.00 74 1002.1
20260902105519 55 347 1.0 3.0 0.00 0.00 0.00 77 1002.1
20260902104519 55 20 3.0 4.0 0.00 0.00 0.00 79 1002.1
20260902103521 55 28 3.0 4.0 0.00 0.00 0.00 81 1002.2
20260902102540 55 36 2.0 3.0 0.00 0.00 0.00 80 1002.2
20260902101540 55 17 1.0 3.0 0.00 0.00 0.00 80 1002.1
20260902100520 55 6 2.0 4.0 0.00 0.00 0.00 80 1002.0
20260902095537 56 14 3.0 4.0 0.00 0.00 0.00 79 1002.0
20260902094539 55 13 1.0 3.0 0.00 0.00 0.00 80 1001.9
20260902093519 56 10 2.0 4.0 0.00 0.00 0.00 80 1001.8
20260902092517 56 18 2.0 5.0 0.00 0.00 0.00 79 1001.9
20260902091523 56 14 1.0 3.0 0.00 0.00 0.00 80 1001.8
20260902090518 56 12 1.0 4.0 0.00 0.00 0.00 78 1001.7
20260902085518 56 354 1.0 3.0 0.00 0.00 0.00 78 1001.8
20260902084518 57 2 1.0 4.0 0.00 0.00 0.00 77 1001.7
20260902083519 56 8 2.0 4.0 0.00 0.00 0.00 78 1001.7
20260902082519 56 8 3.0 3.0 0.00 0.00 0.00 79 1001.7
20260902081519 56 3 2.0 3.0 0.00 0.00 0.00 82 1001.7
20260902080521 56 7 2.0 3.0 0.00 0.00 0.00 83 1001.6
20260902075521 56 13 2.0 3.0 0.00 0.00 0.00 83 1001.5
20260902074516 55 358 0.0 2.0 0.00 0.00 0.00 85 1001.5
20260902073517 56 314 1.0 2.0 0.00 0.00 0.00 83 1001.5
20260902072521 56 310 1.0 3.0 0.00 0.00 0.00 81 1001.4
20260902071520 55 273 1.0 2.0 0.00 0.00 0.00 85 1001.4
20260902070520 55 253 0.0 2.0 0.00 0.00 0.00 90 1001.4
20260902065517 54 262 0.0 1.0 0.00 0.00 0.00 92 1001.3
20260902064519 55 274 0.0 1.0 0.00 0.00 0.00 93 1001.2
20260902063517 55 6 0.0 0.0 0.00 0.00 0.00 91 1001.1
20260902062521 56 346 0.0 2.0 0.00 0.00 0.00 92 1000.9
20260902061519 56 0 1.0 3.0 0.00 0.00 0.00 91 1000.8
20260902060518 57 321 0.0 2.0 0.00 0.00 0.00 92 1000.6
20260902055518 57 348 1.0 3.0 0.00 0.00 0.00 90 1000.4
20260902054542 58 0 1.0 4.0 0.00 0.00 0.00 89 1000.4
20260902053518 59 248 0.0 1.0 0.00 0.00 0.00 88 1000.2
20260902052520 60 7 0.0 2.0 0.00 0.00 0.00 87 1000.0
20260902051520 60 0.0 0.0 0.00 0.00 0.00 84 999.8
20260902050520 59 230 0.0 2.0 0.00 0.00 0.00 85 999.7
20260902045602 60 355 1.0 3.0 0.00 0.00 0.00 84 999.7
20260902044519 60 1 0.0 2.0 0.00 0.00 0.00 83 999.6
20260902043518 59 360 0.0 3.0 0.00 0.00 0.00 83 999.6
20260902042521 59 0.0 0.0 0.00 0.00 0.00 85 999.8
20260902041520 60 0.0 0.0 0.00 0.00 0.00 87 999.6
20260902040520 61 60 0.0 2.0 0.00 0.00 0.00 86 999.6
20260902035517 62 58 1.0 3.0 0.00 0.00 0.00 84 999.5
20260902034517 62 71 3.0 5.0 0.00 0.00 0.00 85 999.5
20260902033519 62 69 3.0 5.0 0.00 0.00 0.00 88 999.4
20260902032518 62 64 3.0 5.0 0.00 0.00 0.00 88 999.3
20260902031518 63 60 3.0 5.0 0.00 0.00 0.00 88 999.3
20260902030538 63 54 3.0 4.0 0.00 0.00 0.00 87 999.3
20260902025518 63 54 3.0 5.0 0.00 0.00 0.00 88 999.5
20260902024519 63 59 3.0 4.0 0.00 0.00 0.00 88 999.5
20260902023520 63 63 3.0 4.0 0.00 0.00 0.00 89 999.6
20260902022519 63 73 1.0 4.0 0.00 0.00 0.00 90 999.7
20260902021539 63 53 1.0 4.0 0.00 0.00 0.00 89 999.7
20260902020521 64 48 2.0 5.0 0.00 0.00 0.00 87 999.8
20260902015517 64 40 3.0 6.0 0.00 0.00 0.00 87 999.9
20260902014538 65 31 3.0 7.0 0.00 0.00 0.00 87 1000.1
20260902013518 65 38 3.0 7.0 0.00 0.00 0.00 85 1000.1
20260902012522 65 54 1.0 4.0 0.00 0.00 0.00 86 1000.2
20260902011520 64 38 2.0 5.0 0.00 0.00 0.00 86 1000.2
20260902010517 64 43 3.0 6.0 0.00 0.01 0.00 86 1000.4
20260902005559 64 29 3.0 5.0 0.00 0.01 0.00 86 1000.6
20260902004519 65 26 1.0 4.0 0.00 0.01 0.00 85 1000.6
20260902003518 65 38 2.0 5.0 0.00 0.01 0.00 84 1000.6
20260902002523 65 30 0.0 3.0 0.00 0.01 0.00 83 1000.7
20260902001518 65 20 0.0 3.0 0.00 0.01 0.00 83 1000.7
20260902000540 65 43 1.0 4.0 0.00 0.01 0.00 82 1000.8
20260901235518 65 54 1.0 3.0 0.00 0.01 0.00 83 1000.9
20260901234519 65 77 0.0 2.0 0.00 0.01 0.00 82 1001.1
20260901233538 65 91 0.0 2.0 0.00 0.01 0.00 83 1001.1
20260901232520 65 63 1.0 3.0 0.00 0.01 0.00 84 1001.2
20260901231521 65 45 1.0 3.0 0.00 0.01 0.00 83 1001.3
20260901230539 65 41 2.0 4.0 0.00 0.01 0.00 83 1001.4
20260901225519 65 43 0.0 2.0 0.00 0.01 0.00 84 1001.6
20260901224536 64 45 1.0 5.0 0.00 0.01 0.00 83 1001.7
20260901223538 65 37 1.0 4.0 0.00 0.01 0.00 83 1001.8
20260901222542 65 25 1.0 3.0 0.00 0.01 0.00 82 1001.9
20260901221520 64 29 0.0 3.0 0.00 0.01 0.00 81 1002.0
20260901220620 64 0.0 0.0 0.00 0.01 0.00 84 1002.1
20260901215517 63 32 1.0 4.0 0.00 0.01 0.00 85 1002.2
20260901214519 63 23 1.0 5.0 0.00 0.01 0.00 85 1002.3
20260901213519 63 17 1.0 3.0 0.00 0.01 0.00 85 1002.4
20260901212523 63 139 0.0 2.0 0.00 0.01 0.00 85 1002.5
20260901211518 63 108 0.0 2.0 0.00 0.01 0.00 85 1002.6
20260901210518 63 143 0.0 2.0 0.00 0.01 0.00 87 1002.6
20260901205518 63 155 0.0 1.0 0.00 0.01 0.00 85 1002.7
20260901204519 63 22 0.0 4.0 0.00 0.01 0.00 83 1002.7
20260901203519 63 142 0.0 2.0 0.00 0.01 0.00 84 1002.8
20260901202520 63 69 1.0 3.0 0.00 0.01 0.00 83 1002.9
20260901201519 63 142 0.0 2.0 0.00 0.01 0.00 85 1003.0
20260901200519 63 142 1.0 3.0 0.00 0.01 0.00 84 1003.0
20260901195519 62 37 0.0 2.0 0.00 0.01 0.00 85 1003.1
20260901194516 62 15 1.0 4.0 0.00 0.01 0.00 85 1003.2
20260901193518 62 52 1.0 4.0 0.00 0.01 0.00 87 1003.2
20260901192542 61 157 0.0 1.0 0.00 0.01 0.00 87 1003.3
20260901191541 60 94 1.0 3.0 0.00 0.01 0.00 89 1003.5
20260901190517 60 64 3.0 5.0 0.00 0.01 0.00 87 1003.5
20260901185526 59 71 2.0 4.0 0.00 0.01 0.00 90 1003.6
20260901184527 59 54 2.0 4.0 0.00 0.01 0.00 90 1003.8
20260901183527 58 28 2.0 4.0 0.00 0.01 0.00 92 1003.9
20260901182528 58 26 1.0 3.0 0.00 0.01 0.00 93 1004.0
20260901181527 57 28 1.0 4.0 0.00 0.01 0.00 93 1004.0
20260901180527 57 8 2.0 3.0 0.00 0.01 0.00 94 1004.1
20260901175528 56 345 2.0 4.0 0.00 0.01 0.00 95 1004.3
20260901174551 55 3 2.0 4.0 0.00 0.01 0.00 96 1004.3
20260901173548 55 11 3.0 5.0 0.00 0.01 0.00 96 1004.3
20260901172519 54 15 2.0 6.0 0.00 0.01 0.00 96 1004.5
20260901171528 54 19 1.0 3.0 0.00 0.01 0.00 96 1004.5
20260901170529 54 18 1.0 3.0 0.00 0.01 0.00 96 1004.5
20260901165550 54 29 1.0 3.0 0.00 0.01 0.00 96 1004.6
20260901164528 54 22 1.0 2.0 0.00 0.01 0.00 96 1004.6
20260901163529 53 8 0.0 1.0 0.00 0.01 0.00 95 1004.6
20260901162529 53 0.0 0.0 0.00 0.01 0.00 95 1004.6
20260901161529 53 49 1.0 3.0 0.00 0.01 0.00 95 1004.7
20260901160529 52 0.0 0.0 0.00 0.01 0.00 95 1004.8
20260901155529 52 38 0.0 2.0 0.00 0.01 0.00 95 1004.8
20260901154532 52 38 1.0 3.0 0.00 0.01 0.00 95 1004.9
20260901153529 52 0.0 0.0 0.00 0.01 0.00 95 1005.0
20260901152531 51 0.0 0.0 0.00 0.02 0.00 95 1005.1
20260901151530 51 307 0.0 0.0 0.00 0.02 0.00 95 1005.1
20260901150530 51 0.0 0.0 0.00 0.02 0.00 95 1005.1
20260901145550 51 269 0.0 0.0 0.00 0.03 0.00 95 1005.1
20260901144531 51 271 0.0 1.0 0.00 0.03 0.00 95 1005.1
20260901143531 51 298 1.0 2.0 0.00 0.03 0.00 95 1005.1
20260901142531 50 237 0.0 1.0 0.00 0.03 0.00 95 1005.1
20260901141516 50 260 1.0 1.0 0.00 0.04 0.00 95 1005.0
20260901140517 50 291 0.0 1.0 0.00 0.04 0.00 95 1004.9
20260901135531 50 298 1.0 2.0 0.00 0.05 0.00 95 1004.9
20260901134533 50 318 1.0 2.0 0.00 0.05 0.00 95 1005.1
20260901133532 50 329 1.0 2.0 0.00 0.06 0.00 95 1005.1
20260901132533 50 339 0.0 0.0 0.00 0.07 0.00 95 1005.2
20260901131520 50 321 1.0 2.0 0.00 0.07 0.00 95 1005.2
20260901130519 50 323 1.0 2.0 0.00 0.07 0.00 95 1005.2